MDT,Max TemperatureF,Mean TemperatureF,Min TemperatureF,Max Dew PointF,MeanDew PointF,Min DewpointF,Max Humidity, Mean Humidity, Min Humidity, Max Sea Level PressureIn, Mean Sea Level PressureIn, Min Sea Level PressureIn, Max VisibilityMiles, Mean VisibilityMiles, Min VisibilityMiles, Max Wind SpeedMPH, Mean Wind SpeedMPH, Max Gust SpeedMPH,PrecipitationIn, CloudCover, Events, WindDirDegrees
2013-7-1,90,76,62,58,54,52,72,50,27,30.14,30.10,30.06,10,10,10,14,5,19,0.00,1,,21
2013-7-2,94,79,64,57,52,47,68,45,21,30.09,30.00,29.86,10,10,10,13,6,16,0.00,0,,197
2013-7-3,99,82,64,57,51,41,67,41,14,29.95,29.80,29.75,10,10,10,25,11,32,0.00,1,,321
2013-7-4,91,80,68,64,60,53,78,53,28,29.85,29.78,29.70,10,10,10,29,10,35,T,2,Rain-Thunderstorm,41
2013-7-5,81,72,63,59,56,52,84,62,39,29.86,29.74,29.67,10,10,10,30,9,36,T,3,Rain-Thunderstorm,256
2013-7-6,84,72,59,58,53,49,84,59,33,29.99,29.85,29.75,10,10,5,22,10,27,0.11,3,Rain-Thunderstorm,29
2013-7-7,83,71,58,57,53,43,80,58,35,29.93,29.87,29.82,10,10,10,20,6,24,T,2,Rain-Thunderstorm,348
2013-7-8,92,77,61,61,56,52,87,62,36,29.99,29.88,29.74,10,10,6,44,8,53,0.39,3,Rain-Thunderstorm,36
2013-7-9,81,70,59,61,55,49,93,65,36,30.12,30.08,30.00,10,10,10,18,8,23,0.00,2,Fog,20
2013-7-10,95,76,57,56,48,37,80,47,14,30.06,29.94,29.78,10,10,10,15,8,19,0.00,1,,217
2013-7-11,96,84,71,56,47,41,53,34,15,29.76,29.68,29.63,10,10,10,32,11,37,T,4,Rain,263
2013-7-12,91,79,67,57,49,43,61,40,19,29.86,29.78,29.71,10,10,10,20,10,25,0.00,3,,196
2013-7-13,87,73,58,58,53,49,78,55,32,30.13,29.94,29.79,10,10,10,25,11,31,0.01,2,Rain-Thunderstorm,4
2013-7-14,85,71,57,55,50,42,77,55,32,30.19,30.08,29.98,10,10,10,24,10,29,0.00,2,,61
2013-7-15,96,78,60,59,49,35,78,45,12,29.96,29.87,29.76,10,10,10,29,7,38,0.00,1,,158
2013-7-16,74,67,60,53,48,41,78,58,38,30.22,30.13,29.86,10,10,10,30,9,36,T,5,Rain,37
2013-7-17,82,71,59,61,57,53,90,68,45,30.17,30.09,29.96,10,10,10,15,4,17,T,4,Rain,351
2013-7-18,95,78,61,58,45,26,78,44,10,30.05,30.00,29.94,10,10,10,23,12,29,0.00,1,,315
2013-7-19,94,77,60,51,43,27,51,31,10,30.04,29.95,29.84,10,10,10,17,7,21,0.00,1,,11
2013-7-20,91,77,62,50,44,38,52,35,17,29.93,29.85,29.75,10,10,10,14,7,18,0.00,0,,21
2013-7-21,94,77,59,48,41,24,56,33,9,29.86,29.75,29.72,10,10,10,22,10,28,0.00,0,,320
2013-7-22,97,79,61,53,45,27,60,35,9,29.89,29.79,29.71,10,10,10,24,8,31,0.00,0,,13
2013-7-23,92,76,59,53,48,40,67,44,21,30.04,29.96,29.89,10,10,10,21,9,26,0.00,1,,19
2013-7-24,95,79,62,54,48,41,60,38,16,30.04,29.94,29.81,10,10,10,29,10,37,T,1,Rain-Thunderstorm,57
2013-7-25,84,72,60,55,52,50,73,53,33,30.14,30.08,29.97,10,10,10,33,12,44,T,2,Thunderstorm,46
2013-7-26,85,70,55,53,48,45,72,53,34,30.22,30.11,30.00,10,10,10,23,11,27,0.00,1,,48
2013-7-27,90,74,58,51,46,40,62,40,18,30.08,29.91,29.78,10,10,10,35,7,46,0.01,3,Rain-Thunderstorm,8
2013-7-28,82,71,60,55,51,45,78,56,33,29.98,29.82,29.74,10,10,9,28,9,34,0.04,3,Rain-Thunderstorm,67
2013-7-29,75,66,56,54,51,49,93,70,46,30.06,29.97,29.85,10,10,10,25,11,30,0.06,4,Rain,44
2013-7-30,79,68,56,58,53,51,90,65,39,30.20,30.09,29.97,10,10,6,16,7,21,0.05,3,Rain-Thunderstorm,30
2013-7-31,88,71,53,56,50,43,93,57,21,30.26,30.12,30.01,10,10,6,14,7,19,0.00,1,Fog,203